Precipitable_Water
1.35 1.42 1.45 1.46 1.50 1.50 1.55 1.65 1.70 1.64 1.68 1.72 1.61 1.68 1.65 1.61 1.50 1.62 1.55 1.61 1.53 1.53 1.55 1.53 1.51 1.43 1.32 1.32 1.40 1.43 1.43 1.41 1.44 1.41 1.36 1.31 1.31 1.37 1.60 1.67 1.52 1.48 1.44 1.36 1.47 1.53 1.57 1.53 1.49 1.49 1.49 1.43 1.45 1.45 1.46 1.43 1.43 1.41 1.41 1.41 1.41 1.42 1.37 1.33 1.23 1.23 1.34 1.47 1.39 1.36 1.48 1.47 1.35 1.46 1.42 1.44 1.43 1.47 1.51 1.51 1.55 1.53 1.52 1.55 1.53
1.32 1.35 1.36 1.38 1.45 1.46 1.49 1.56 1.67 1.64 1.66 1.68 1.62 1.65 1.66 1.70 1.65 1.60 1.56 1.60 1.62 1.60 1.49 1.49 1.55 1.48 1.40 1.36 1.41 1.52 1.50 1.48 1.48 1.49 1.46 1.40 1.35 1.38 1.37 1.47 1.52 1.52 1.49 1.44 1.45 1.42 1.47 1.45 1.46 1.47 1.52 1.46 1.43 1.42 1.43 1.43 1.43 1.46 1.54 1.55 1.48 1.49 1.57 1.44 1.35 1.23 1.14 1.30 1.36 1.50 1.40 1.52 1.39 1.54 1.45 1.40 1.45 1.51 1.50 1.56 1.57 1.55 1.49 1.51 1.50
1.35 1.33 1.30 1.25 1.28 1.36 1.43 1.48 1.53 1.60 1.63 1.67 1.62 1.68 1.69 1.68 1.73 1.67 1.64 1.60 1.67 1.68 1.63 1.54 1.55 1.54 1.48 1.47 1.46 1.52 1.61 1.62 1.57 1.55 1.55 1.52 1.45 1.48 1.52 1.52 1.47 1.39 1.36 1.35 1.35 1.42 1.40 1.40 1.40 1.45 1.47 1.41 1.44 1.47 1.44 1.35 1.34 1.35 1.38 1.45 1.39 1.38 1.41 1.40 1.28 1.18 1.18 1.27 1.42 1.39 1.44 1.49 1.41 1.41 1.49 1.55 1.58 1.60 1.55 1.54 1.51 1.50 1.56 1.57 1.51
1.39 1.34 1.32 1.28 1.26 1.28 1.30 1.37 1.44 1.48 1.52 1.65 1.63 1.70 1.78 1.70 1.73 1.69 1.76 1.71 1.66 1.68 1.72 1.70 1.68 1.60 1.52 1.58 1.58 1.62 1.62 1.65 1.64 1.57 1.57 1.59 1.62 1.56 1.54 1.57 1.60 1.58 1.51 1.48 1.50 1.52 1.44 1.41 1.46 1.49 1.50 1.46 1.48 1.49 1.52 1.51 1.46 1.42 1.40 1.42 1.41 1.38 1.44 1.50 1.54 1.45 1.42 1.29 1.40 1.38 1.50 1.48 1.53 1.62 1.67 1.70 1.66 1.65 1.63 1.60 1.64 1.64 1.64 1.60 1.49
1.44 1.39 1.34 1.33 1.30 1.28 1.26 1.29 1.33 1.39 1.43 1.55 1.68 1.68 1.71 1.77 1.75 1.72 1.72 1.75 1.77 1.70 1.76 1.74 1.71 1.68 1.60 1.59 1.61 1.59 1.60 1.63 1.58 1.56 1.60 1.66 1.70 1.65 1.62 1.56 1.59 1.63 1.62 1.58 1.58 1.54 1.54 1.50 1.54 1.57 1.54 1.41 1.44 1.40 1.44 1.44 1.51 1.49 1.48 1.58 1.57 1.59 1.59 1.61 1.60 1.57 1.43 1.34 1.39 1.54 1.62 1.63 1.65 1.66 1.70 1.59 1.59 1.62 1.64 1.58 1.54 1.52 1.54 1.52 1.41
1.44 1.40 1.36 1.33 1.32 1.28 1.28 1.27 1.27 1.28 1.34 1.40 1.51 1.71 1.75 1.74 1.76 1.80 1.76 1.73 1.80 1.78 1.77 1.75 1.70 1.70 1.66 1.65 1.67 1.64 1.61 1.65 1.60 1.58 1.61 1.66 1.69 1.67 1.67 1.66 1.62 1.61 1.56 1.53 1.54 1.57 1.52 1.51 1.51 1.50 1.44 1.42 1.44 1.45 1.47 1.49 1.55 1.54 1.50 1.47 1.50 1.54 1.55 1.57 1.55 1.53 1.54 1.52 1.53 1.48 1.53 1.53 1.56 1.60 1.60 1.57 1.53 1.50 1.50 1.51 1.48 1.48 1.44 1.39 1.34
1.45 1.42 1.38 1.35 1.34 1.27 1.28 1.27 1.26 1.26 1.28 1.32 1.39 1.48 1.69 1.79 1.79 1.74 1.76 1.76 1.72 1.75 1.83 1.84 1.83 1.78 1.72 1.72 1.76 1.74 1.69 1.70 1.67 1.63 1.63 1.67 1.63 1.65 1.67 1.68 1.69 1.70 1.64 1.73 1.76 1.73 1.72 1.68 1.61 1.57 1.53 1.54 1.53 1.50 1.53 1.55 1.55 1.52 1.54 1.58 1.58 1.57 1.52 1.49 1.53 1.52 1.49 1.42 1.42 1.43 1.40 1.49 1.46 1.35 1.48 1.46 1.50 1.53 1.39 1.34 1.32 1.38 1.39 1.31 1.18
1.50 1.47 1.44 1.41 1.35 1.29 1.31 1.32 1.29 1.30 1.31 1.28 1.31 1.35 1.40 1.45 1.61 1.75 1.78 1.74 1.74 1.75 1.78 1.84 1.86 1.83 1.79 1.75 1.78 1.81 1.80 1.75 1.73 1.69 1.65 1.59 1.66 1.62 1.64 1.69 1.71 1.69 1.70 1.72 1.77 1.76 1.76 1.75 1.74 1.73 1.71 1.68 1.68 1.67 1.61 1.62 1.65 1.58 1.57 1.56 1.60 1.47 1.42 1.42 1.37 1.36 1.32 1.32 1.30 1.27 1.26 1.21 1.30 1.40 1.40 1.36 1.26 1.28 1.34 1.23 1.15 1.24 1.24 1.20 1.13
1.58 1.55 1.52 1.45 1.40 1.37 1.37 1.35 1.33 1.33 1.35 1.34 1.25 1.29 1.37 1.53 1.48 1.47 1.52 1.62 1.67 1.72 1.77 1.83 1.86 1.86 1.85 1.83 1.76 1.76 1.78 1.80 1.78 1.76 1.69 1.62 1.61 1.62 1.60 1.60 1.64 1.62 1.61 1.71 1.77 1.75 1.83 1.72 1.67 1.74 1.77 1.72 1.74 1.79 1.73 1.63 1.52 1.40 1.41 1.38 1.32 1.29 1.26 1.25 1.24 1.23 1.22 1.16 1.12 1.16 1.12 1.09 1.14 1.15 1.19 1.20 1.14 1.04 1.15 1.33 1.26 1.23 1.13 1.01 1.13
1.63 1.60 1.57 1.54 1.54 1.53 1.47 1.40 1.34 1.31 1.30 1.31 1.29 1.29 1.33 1.39 1.53 1.46 1.46 1.44 1.46 1.52 1.58 1.66 1.76 1.83 1.83 1.86 1.85 1.80 1.78 1.80 1.85 1.83 1.84 1.76 1.71 1.68 1.64 1.59 1.54 1.55 1.59 1.63 1.68 1.70 1.71 1.68 1.72 1.65 1.71 1.72 1.68 1.68 1.69 1.61 1.50 1.37 1.27 1.19 1.17 1.13 1.09 1.04 1.02 1.01 1.01 0.97 0.95 0.95 0.89 0.89 0.92 0.98 0.96 0.96 1.03 1.21 1.27 1.20 1.04 1.03 1.05 1.17 1.30
1.79 1.69 1.72 1.88 1.82 1.70 1.61 1.57 1.52 1.42 1.39 1.33 1.27 1.25 1.31 1.37 1.42 1.49 1.52 1.52 1.46 1.46 1.49 1.51 1.56 1.65 1.69 1.76 1.85 1.85 1.82 1.76 1.78 1.81 1.86 1.84 1.78 1.76 1.66 1.58 1.51 1.48 1.54 1.62 1.67 1.67 1.64 1.62 1.56 1.59 1.68 1.70 1.69 1.70 1.68 1.68 1.64 1.58 1.48 1.39 1.34 1.25 1.14 1.08 1.04 1.06 1.01 0.99 1.01 0.99 0.98 0.95 0.99 1.06 1.09 1.13 1.21 1.17 1.17 1.20 1.20 1.25 1.28 1.24 1.14
1.91 1.87 1.86 1.92 1.91 1.92 1.99 1.96 1.86 1.73 1.68 1.64 1.54 1.42 1.35 1.41 1.43 1.40 1.39 1.40 1.45 1.45 1.40 1.43 1.48 1.50 1.56 1.68 1.71 1.71 1.69 1.75 1.79 1.80 1.79 1.76 1.71 1.68 1.66 1.56 1.47 1.44 1.49 1.54 1.57 1.60 1.59 1.61 1.63 1.78 1.76 1.79 1.76 1.79 1.71 1.66 1.66 1.64 1.61 1.54 1.42 1.35 1.32 1.21 1.14 1.10 1.11 1.09 1.11 1.14 1.14 1.15 1.20 1.27 1.30 1.31 1.34 1.36 1.39 1.39 1.38 1.36 1.30 1.23 1.20
2.00 1.93 1.93 2.01 2.06 2.05 2.00 1.98 1.98 2.02 1.96 1.91 1.67 1.60 1.51 1.45 1.45 1.45 1.43 1.47 1.50 1.46 1.43 1.44 1.47 1.49 1.45 1.47 1.63 1.62 1.66 1.76 1.81 1.79 1.73 1.66 1.63 1.61 1.57 1.52 1.44 1.37 1.35 1.43 1.50 1.54 1.58 1.62 1.66 1.73 1.69 1.82 1.84 1.84 1.79 1.74 1.74 1.68 1.65 1.66 1.61 1.56 1.52 1.49 1.45 1.36 1.32 1.24 1.19 1.19 1.26 1.30 1.26 1.35 1.50 1.55 1.56 1.38 1.35 1.31 1.34 1.35 1.37 1.30 1.32
2.01 2.00 2.02 2.05 2.06 2.06 2.11 2.05 1.93 1.91 1.81 1.74 1.75 1.78 1.72 1.60 1.56 1.55 1.53 1.60 1.65 1.62 1.60 1.59 1.59 1.58 1.55 1.56 1.48 1.50 1.53 1.57 1.61 1.67 1.68 1.65 1.61 1.56 1.50 1.47 1.40 1.33 1.27 1.31 1.46 1.56 1.56 1.66 1.70 1.64 1.68 1.77 1.82 1.79 1.79 1.74 1.75 1.75 1.71 1.61 1.58 1.62 1.65 1.59 1.57 1.56 1.54 1.49 1.45 1.40 1.49 1.55 1.49 1.54 1.62 1.62 1.48 1.39 1.38 1.37 1.46 1.45 1.46 1.46 1.59
2.00 2.04 2.09 2.10 2.14 2.06 2.08 2.08 1.97 1.94 1.91 1.86 1.81 1.87 1.86 1.84 1.82 1.80 1.75 1.70 1.79 1.94 1.87 1.83 1.82 1.80 1.77 1.71 1.58 1.47 1.44 1.45 1.47 1.49 1.52 1.53 1.53 1.54 1.52 1.47 1.40 1.33 1.38 1.50 1.47 1.47 1.53 1.58 1.65 1.67 1.66 1.65 1.74 1.87 1.85 1.83 1.69 1.70 1.84 1.67 1.49 1.44 1.44 1.49 1.55 1.49 1.49 1.55 1.58 1.60 1.64 1.71 1.67 1.64 1.67 1.68 1.64 1.64 1.65 1.62 1.65 1.65 1.65 1.73 1.75
1.94 1.99 1.97 2.03 2.11 2.05 2.04 2.07 2.05 2.02 1.99 1.95 1.88 1.87 1.94 1.94 1.89 1.94 1.93 1.94 2.00 1.95 1.93 1.90 1.88 1.92 1.91 1.80 1.74 1.67 1.62 1.57 1.53 1.49 1.47 1.47 1.47 1.44 1.43 1.37 1.37 1.40 1.52 1.49 1.53 1.50 1.54 1.65 1.72 1.71 1.70 1.75 1.78 1.73 1.73 1.72 1.66 1.71 1.58 1.46 1.48 1.52 1.57 1.71 1.69 1.69 1.69 1.73 1.79 1.82 1.84 1.86 1.84 1.82 1.82 1.82 1.79 1.80 1.82 1.82 1.80 1.74 1.64 1.56 1.54
1.93 1.95 2.01 2.06 2.06 2.00 1.90 1.94 2.04 2.07 2.05 1.99 1.96 1.98 2.00 2.02 2.07 2.10 2.06 2.12 2.11 2.03 1.96 1.96 1.93 1.90 1.89 1.86 1.77 1.75 1.75 1.71 1.63 1.55 1.51 1.47 1.42 1.43 1.42 1.41 1.43 1.49 1.53 1.55 1.51 1.50 1.51 1.55 1.57 1.58 1.64 1.69 1.71 1.68 1.65 1.63 1.59 1.51 1.43 1.38 1.40 1.45 1.52 1.67 1.73 1.78 1.82 1.85 1.88 1.92 1.94 1.95 1.95 1.95 1.97 1.99 1.95 1.93 1.86 1.72 1.65 1.70 1.61 1.53 1.60
1.89 1.92 1.94 1.95 1.96 2.02 2.01 2.01 2.03 2.05 2.04 2.04 2.07 2.09 2.11 2.14 2.12 2.15 2.11 2.09 2.08 2.11 2.09 2.00 1.99 1.95 1.87 1.84 1.84 1.79 1.82 1.86 1.84 1.77 1.65 1.54 1.47 1.44 1.44 1.43 1.44 1.44 1.44 1.52 1.55 1.51 1.52 1.52 1.53 1.51 1.44 1.45 1.53 1.56 1.59 1.60 1.53 1.48 1.42 1.33 1.33 1.40 1.53 1.64 1.72 1.81 1.88 1.89 1.90 1.92 1.93 1.94 1.96 1.99 2.00 2.00 2.01 2.00 1.85 1.66 1.76 1.77 1.66 1.65 1.59
1.84 1.86 1.90 1.94 1.93 2.01 2.03 2.03 2.05 2.02 1.99 1.99 2.00 2.00 2.03 2.06 2.11 2.14 2.13 2.11 2.08 2.11 2.14 2.07 2.05 2.04 1.99 1.92 1.89 1.83 1.83 1.89 1.91 1.88 1.82 1.75 1.68 1.63 1.58 1.51 1.44 1.40 1.42 1.43 1.49 1.58 1.58 1.54 1.52 1.52 1.44 1.39 1.45 1.50 1.51 1.49 1.50 1.53 1.49 1.44 1.45 1.50 1.60 1.67 1.66 1.64 1.69 1.73 1.80 1.88 1.90 1.94 1.96 1.96 1.99 2.02 2.05 2.03 1.96 1.90 1.94 1.85 1.73 1.72 1.73
1.82 1.87 1.89 1.94 1.99 2.03 2.09 2.07 2.06 2.01 1.95 1.95 1.97 1.98 2.01 2.00 2.02 2.06 2.08 2.09 2.07 2.08 2.11 2.05 1.99 1.98 2.03 2.03 2.01 1.96 1.90 1.88 1.88 1.86 1.83 1.83 1.82 1.78 1.72 1.60 1.50 1.48 1.51 1.52 1.50 1.57 1.58 1.59 1.63 1.61 1.57 1.54 1.53 1.57 1.61 1.60 1.53 1.54 1.57 1.56 1.60 1.61 1.71 1.67 1.67 1.69 1.71 1.78 1.82 1.87 1.88 1.93 1.96 1.98 2.02 2.02 2.04 2.03 1.99 2.02 2.01 1.96 1.87 1.83 1.81
1.82 1.83 1.85 1.88 1.90 1.91 1.93 1.93 1.96 1.99 1.99 1.94 1.97 1.99 2.02 2.02 2.06 2.05 2.02 2.04 2.03 2.01 1.99 1.97 1.99 1.96 1.95 1.96 1.99 2.00 1.96 1.88 1.84 1.81 1.80 1.83 1.88 1.88 1.83 1.77 1.73 1.65 1.57 1.56 1.59 1.61 1.67 1.71 1.69 1.61 1.56 1.56 1.59 1.60 1.62 1.61 1.58 1.59 1.60 1.59 1.66 1.72 1.75 1.72 1.76 1.84 1.88 1.89 1.87 1.86 1.87 1.89 1.90 1.91 1.93 1.96 1.99 1.99 1.94 1.91 1.90 1.90 1.83 1.73 1.68
1.74 1.77 1.79 1.81 1.81 1.82 1.84 1.88 1.91 1.95 1.96 1.98 1.94 1.92 1.94 1.98 1.95 1.92 1.98 1.97 1.94 1.93 1.94 1.95 1.94 1.92 1.92 1.92 1.94 1.96 2.00 1.94 1.87 1.83 1.82 1.82 1.85 1.89 1.88 1.89 1.89 1.84 1.80 1.77 1.74 1.72 1.71 1.67 1.63 1.62 1.58 1.57 1.57 1.61 1.60 1.59 1.59 1.64 1.65 1.68 1.71 1.71 1.70 1.75 1.76 1.76 1.73 1.74 1.77 1.76 1.68 1.63 1.60 1.57 1.61 1.57 1.54 1.52 1.56 1.60 1.67 1.71 1.66 1.59 1.52
1.69 1.70 1.71 1.72 1.74 1.76 1.77 1.77 1.79 1.83 1.87 1.91 1.87 1.82 1.85 1.84 1.85 1.86 1.85 1.83 1.81 1.80 1.83 1.87 1.88 1.89 1.86 1.85 1.86 1.85 1.89 1.86 1.82 1.80 1.80 1.79 1.78 1.79 1.81 1.84 1.87 1.91 1.84 1.77 1.73 1.72 1.74 1.69 1.64 1.59 1.58 1.57 1.58 1.60 1.59 1.55 1.56 1.56 1.57 1.62 1.66 1.67 1.68 1.67 1.65 1.55 1.48 1.52 1.51 1.49 1.48 1.44 1.38 1.33 1.34 1.29 1.31 1.36 1.39 1.46 1.45 1.35 1.28 1.34 1.39
1.60 1.61 1.61 1.63 1.65 1.68 1.69 1.70 1.73 1.77 1.79 1.81 1.79 1.77 1.77 1.77 1.78 1.78 1.80 1.75 1.71 1.69 1.69 1.73 1.78 1.79 1.77 1.81 1.78 1.78 1.79 1.73 1.81 1.78 1.75 1.72 1.69 1.69 1.72 1.75 1.75 1.74 1.75 1.73 1.71 1.66 1.60 1.57 1.52 1.45 1.37 1.32 1.35 1.37 1.39 1.40 1.40 1.41 1.44 1.46 1.47 1.48 1.45 1.42 1.34 1.24 1.29 1.26 1.23 1.20 1.21 1.25 1.22 1.16 1.12 1.16 1.21 1.26 1.31 1.29 1.13 0.99 1.07 1.07 1.07
1.47 1.49 1.51 1.56 1.60 1.64 1.65 1.65 1.67 1.66 1.68 1.70 1.67 1.67 1.67 1.70 1.68 1.70 1.69 1.68 1.64 1.61 1.60 1.61 1.62 1.67 1.71 1.68 1.71 1.74 1.74 1.70 1.69 1.72 1.69 1.73 1.70 1.70 1.69 1.64 1.60 1.59 1.56 1.56 1.56 1.52 1.50 1.45 1.35 1.21 1.13 1.08 1.10 1.12 1.15 1.17 1.13 1.15 1.11 1.14 1.25 1.25 1.18 1.10 1.00 1.01 0.98 0.93 0.93 0.98 1.01 1.01 1.03 1.03 1.09 1.12 1.14 1.23 1.15 1.00 0.81 0.81 0.84 0.86 0.82
1.34 1.30 1.33 1.40 1.48 1.53 1.52 1.54 1.57 1.60 1.61 1.64 1.64 1.64 1.61 1.58 1.56 1.56 1.55 1.53 1.51 1.48 1.45 1.45 1.46 1.46 1.49 1.55 1.55 1.59 1.62 1.63 1.64 1.67 1.70 1.66 1.58 1.55 1.58 1.57 1.52 1.50 1.46 1.41 1.44 1.38 1.27 1.17 1.10 1.04 0.98 0.98 0.98 1.03 1.02 1.00 0.96 0.93 0.91 0.87 1.05 0.98 0.90 0.82 0.79 0.81 0.77 0.73 0.76 0.80 0.80 0.83 0.82 0.88 0.96 0.98 1.02 0.93 0.85 0.71 0.67 0.69 0.71 0.70 0.65
1.21 1.24 1.25 1.30 1.35 1.37 1.36 1.35 1.34 1.37 1.42 1.49 1.51 1.56 1.61 1.61 1.59 1.59 1.59 1.57 1.56 1.51 1.43 1.40 1.39 1.41 1.39 1.41 1.44 1.49 1.55 1.54 1.50 1.49 1.51 1.49 1.43 1.36 1.32 1.31 1.29 1.27 1.22 1.14 1.06 1.00 0.98 0.99 0.96 0.91 0.86 0.84 0.84 0.86 0.90 0.87 0.84 0.83 0.86 0.66 0.86 0.86 0.81 0.80 0.74 0.68 0.67 0.63 0.69 0.68 0.72 0.75 0.77 0.78 0.76 0.76 0.76 0.73 0.71 0.67 0.64 0.64 0.64 0.64 0.62
1.12 1.12 1.13 1.14 1.20 1.24 1.26 1.28 1.33 1.36 1.38 1.40 1.39 1.42 1.52 1.51 1.47 1.44 1.45 1.46 1.48 1.49 1.49 1.46 1.44 1.47 1.47 1.48 1.47 1.50 1.46 1.40 1.32 1.29 1.30 1.29 1.26 1.21 1.17 1.14 1.11 1.07 0.94 0.84 0.82 0.84 0.84 0.86 0.84 0.82 0.81 0.82 0.85 0.87 0.88 0.88 0.77 0.75 0.80 0.66 0.79 0.77 0.75 0.78 0.70 0.62 0.59 0.64 0.65 0.64 0.65 0.64 0.64 0.66 0.67 0.63 0.64 0.63 0.64 0.62 0.60 0.58 0.59 0.59 0.56
1.08 1.08 1.10 1.11 1.15 1.19 1.20 1.21 1.26 1.26 1.29 1.31 1.31 1.32 1.32 1.33 1.33 1.36 1.38 1.45 1.46 1.45 1.42 1.44 1.45 1.46 1.45 1.42 1.43 1.39 1.33 1.27 1.24 1.21 1.17 1.13 1.08 1.01 0.96 0.91 0.84 0.79 0.80 0.80 0.80 0.80 0.82 0.81 0.84 0.76 0.76 0.77 0.74 0.74 0.73 0.76 0.72 0.69 0.74 0.67 0.70 0.72 0.69 0.67 0.58 0.52 0.59 0.60 0.59 0.54 0.57 0.59 0.60 0.61 0.58 0.53 0.55 0.56 0.61 0.60 0.60 0.56 0.58 0.59 0.52
1.06 1.03 1.07 1.09 1.10 1.10 1.15 1.17 1.22 1.19 1.20 1.22 1.22 1.21 1.25 1.24 1.23 1.21 1.21 1.30 1.32 1.32 1.30 1.27 1.29 1.27 1.22 1.22 1.23 1.14 1.08 1.09 1.04 0.98 0.93 0.88 0.83 0.79 0.76 0.75 0.74 0.75 0.77 0.80 0.83 0.80 0.79 0.81 0.77 0.73 0.69 0.74 0.70 0.68 0.67 0.72 0.69 0.66 0.69 0.66 0.73 0.72 0.70 0.66 0.59 0.56 0.62 0.61 0.56 0.56 0.59 0.61 0.57 0.57 0.52 0.52 0.53 0.53 0.58 0.57 0.54 0.57 0.53 0.49 0.47
1.16 1.09 1.07 1.02 1.01 1.12 1.09 1.11 1.17 1.16 1.10 1.06 1.08 1.03 0.99 1.00 1.04 1.06 1.05 1.06 1.08 1.08 1.10 1.11 1.12 1.14 1.12 1.05 1.05 1.03 0.97 0.93 0.91 0.86 0.82 0.79 0.78 0.77 0.77 0.77 0.77 0.76 0.79 0.82 0.81 0.80 0.79 0.78 0.77 0.72 0.71 0.74 0.70 0.66 0.66 0.67 0.66 0.64 0.63 0.67 0.69 0.70 0.69 0.65 0.58 0.63 0.62 0.58 0.53 0.59 0.62 0.60 0.57 0.54 0.52 0.53 0.52 0.53 0.56 0.56 0.56 0.55 0.52 0.51 0.49
1.14 1.16 1.18 1.12 1.05 1.08 1.07 1.07 1.04 1.00 0.95 0.92 0.88 0.84 0.82 0.81 0.86 0.92 0.92 0.90 0.89 0.89 0.92 0.95 0.97 0.98 0.99 0.98 0.95 0.93 0.91 0.87 0.84 0.80 0.75 0.72 0.71 0.71 0.71 0.71 0.72 0.74 0.77 0.80 0.77 0.76 0.79 0.79 0.77 0.75 0.74 0.72 0.71 0.68 0.69 0.66 0.64 0.63 0.64 0.63 0.62 0.65 0.63 0.57 0.62 0.63 0.58 0.53 0.51 0.56 0.58 0.57 0.54 0.53 0.56 0.56 0.54 0.55 0.54 0.54 0.54 0.53 0.53 0.54 0.52
1.20 1.17 1.17 1.17 1.13 1.14 1.15 1.10 1.04 1.01 0.96 0.90 0.86 0.86 0.84 0.76 0.74 0.74 0.80 0.83 0.81 0.81 0.82 0.83 0.83 0.83 0.83 0.81 0.81 0.81 0.81 0.81 0.79 0.75 0.72 0.70 0.69 0.70 0.73 0.73 0.73 0.74 0.76 0.77 0.74 0.71 0.74 0.74 0.73 0.72 0.70 0.68 0.67 0.66 0.66 0.64 0.63 0.63 0.63 0.60 0.59 0.62 0.60 0.60 0.66 0.59 0.54 0.50 0.53 0.56 0.57 0.54 0.53 0.54 0.54 0.53 0.52 0.51 0.52 0.51 0.51 0.51 0.51 0.48 0.47
1.15 1.17 1.16 1.16 1.12 1.12 1.13 1.14 1.12 1.09 1.06 1.01 0.97 0.92 0.86 0.85 0.82 0.76 0.72 0.72 0.76 0.78 0.79 0.78 0.78 0.79 0.78 0.78 0.77 0.76 0.76 0.75 0.74 0.73 0.71 0.70 0.69 0.71 0.74 0.76 0.77 0.77 0.73 0.71 0.71 0.67 0.69 0.67 0.67 0.65 0.64 0.64 0.63 0.62 0.62 0.62 0.62 0.60 0.60 0.58 0.61 0.60 0.57 0.64 0.59 0.53 0.51 0.52 0.55 0.57 0.57 0.55 0.55 0.52 0.49 0.49 0.50 0.49 0.48 0.47 0.47 0.45 0.44 0.43 0.41
1.13 1.14 1.16 1.17 1.16 1.14 1.14 1.14 1.14 1.14 1.11 1.08 1.08 1.03 0.99 0.94 0.90 0.86 0.80 0.78 0.75 0.73 0.71 0.74 0.74 0.73 0.72 0.72 0.73 0.73 0.72 0.72 0.69 0.68 0.68 0.66 0.68 0.72 0.75 0.77 0.77 0.78 0.78 0.75 0.68 0.64 0.64 0.63 0.62 0.62 0.62 0.61 0.60 0.60 0.57 0.57 0.57 0.57 0.55 0.55 0.56 0.52 0.55 0.56 0.52 0.52 0.54 0.55 0.54 0.55 0.56 0.57 0.55 0.53 0.50 0.47 0.46 0.45 0.45 0.45 0.47 0.48 0.45 0.42 0.40
1.12 1.12 1.12 1.12 1.15 1.18 1.18 1.16 1.15 1.14 1.12 1.10 1.08 1.05 1.03 1.00 0.94 0.91 0.88 0.87 0.90 0.83 0.79 0.81 0.78 0.74 0.73 0.70 0.69 0.67 0.67 0.66 0.66 0.65 0.66 0.65 0.67 0.70 0.69 0.69 0.70 0.69 0.69 0.69 0.65 0.62 0.63 0.61 0.60 0.60 0.59 0.58 0.59 0.58 0.57 0.56 0.57 0.56 0.57 0.55 0.52 0.51 0.55 0.52 0.51 0.53 0.54 0.52 0.52 0.56 0.56 0.54 0.54 0.51 0.50 0.49 0.47 0.45 0.45 0.46 0.46 0.45 0.43 0.42 0.42
1.07 1.08 1.11 1.14 1.15 1.14 1.12 1.10 1.11 1.09 1.06 1.05 1.05 1.03 0.99 0.95 0.93 0.93 0.91 0.88 0.87 0.86 0.88 0.86 0.82 0.79 0.78 0.76 0.72 0.66 0.67 0.68 0.68 0.66 0.65 0.65 0.65 0.68 0.67 0.71 0.67 0.68 0.68 0.65 0.63 0.61 0.60 0.58 0.59 0.57 0.56 0.55 0.55 0.54 0.54 0.55 0.54 0.54 0.54 0.52 0.50 0.54 0.52 0.51 0.53 0.54 0.52 0.52 0.54 0.54 0.52 0.52 0.52 0.51 0.49 0.45 0.45 0.46 0.46 0.46 0.43 0.41 0.42 0.43 0.43
1.08 1.06 1.06 1.08 1.10 1.11 1.10 1.10 1.07 1.05 1.03 1.01 0.98 0.97 0.96 0.93 0.90 0.92 0.90 0.87 0.87 0.87 0.92 0.88 0.84 0.81 0.80 0.78 0.78 0.73 0.69 0.71 0.73 0.71 0.68 0.65 0.65 0.66 0.70 0.66 0.63 0.66 0.66 0.65 0.62 0.61 0.59 0.60 0.59 0.57 0.56 0.55 0.53 0.53 0.51 0.51 0.51 0.51 0.50 0.48 0.50 0.50 0.50 0.51 0.52 0.51 0.51 0.50 0.50 0.50 0.50 0.50 0.50 0.49 0.47 0.44 0.43 0.43 0.43 0.42 0.42 0.42 0.42 0.42 0.42
1.06 1.05 1.04 1.04 1.06 1.08 1.07 1.07 1.04 1.01 1.00 1.00 0.94 0.90 0.88 0.85 0.83 0.82 0.81 0.81 0.81 0.81 0.81 0.81 0.76 0.77 0.82 0.75 0.68 0.68 0.64 0.63 0.65 0.67 0.68 0.70 0.71 0.69 0.66 0.63 0.62 0.63 0.62 0.62 0.61 0.59 0.57 0.55 0.55 0.55 0.55 0.54 0.53 0.53 0.52 0.51 0.51 0.49 0.49 0.49 0.49 0.48 0.49 0.49 0.49 0.49 0.49 0.48 0.48 0.48 0.49 0.49 0.47 0.47 0.46 0.44 0.43 0.42 0.41 0.41 0.42 0.42 0.41 0.40 0.40
1.04 1.02 1.03 1.01 1.00 0.98 0.96 0.97 0.98 0.93 0.87 0.90 0.89 0.85 0.83 0.82 0.80 0.77 0.76 0.76 0.75 0.75 0.75 0.75 0.76 0.76 0.75 0.72 0.67 0.59 0.57 0.59 0.61 0.70 0.70 0.68 0.67 0.66 0.64 0.63 0.61 0.59 0.57 0.57 0.57 0.56 0.55 0.54 0.53 0.52 0.52 0.52 0.52 0.51 0.51 0.51 0.51 0.50 0.50 0.49 0.48 0.48 0.49 0.49 0.49 0.48 0.47 0.48 0.47 0.48 0.47 0.46 0.45 0.45 0.44 0.43 0.42 0.42 0.41 0.40 0.41 0.42 0.43 0.43 0.43
0.94 0.91 0.92 0.94 0.96 0.97 0.94 0.89 0.85 0.84 0.84 0.85 0.85 0.83 0.80 0.80 0.79 0.77 0.75 0.73 0.73 0.72 0.72 0.74 0.73 0.73 0.71 0.69 0.66 0.58 0.56 0.59 0.59 0.64 0.64 0.61 0.62 0.60 0.59 0.58 0.56 0.55 0.55 0.55 0.53 0.52 0.52 0.51 0.51 0.51 0.51 0.51 0.51 0.50 0.50 0.49 0.49 0.48 0.48 0.48 0.48 0.48 0.48 0.49 0.49 0.48 0.48 0.47 0.46 0.46 0.46 0.46 0.45 0.43 0.41 0.42 0.42 0.41 0.41 0.41 0.41 0.42 0.42 0.43 0.44
0.88 0.87 0.90 0.89 0.91 0.91 0.88 0.84 0.80 0.80 0.84 0.85 0.82 0.81 0.79 0.79 0.78 0.75 0.74 0.74 0.73 0.72 0.70 0.69 0.68 0.67 0.65 0.63 0.56 0.47 0.50 0.57 0.57 0.59 0.60 0.59 0.59 0.58 0.56 0.57 0.58 0.57 0.55 0.54 0.53 0.52 0.51 0.51 0.51 0.51 0.51 0.50 0.50 0.50 0.49 0.48 0.49 0.48 0.48 0.48 0.48 0.48 0.48 0.47 0.47 0.47 0.47 0.46 0.46 0.46 0.45 0.45 0.45 0.45 0.44 0.44 0.43 0.42 0.42 0.42 0.42 0.42 0.43 0.44 0.45
0.88 0.88 0.88 0.90 0.91 0.92 0.89 0.88 0.85 0.81 0.79 0.79 0.79 0.79 0.79 0.78 0.76 0.73 0.72 0.71 0.71 0.70 0.69 0.67 0.65 0.63 0.59 0.55 0.44 0.38 0.45 0.53 0.52 0.52 0.56 0.57 0.56 0.54 0.56 0.57 0.57 0.57 0.56 0.56 0.56 0.55 0.53 0.52 0.51 0.51 0.50 0.49 0.50 0.49 0.48 0.48 0.48 0.48 0.47 0.47 0.48 0.48 0.47 0.47 0.46 0.46 0.46 0.45 0.45 0.45 0.45 0.45 0.45 0.44 0.43 0.43 0.43 0.42 0.42 0.42 0.43 0.43 0.44 0.45 0.45
0.89 0.90 0.89 0.88 0.88 0.86 0.84 0.84 0.82 0.84 0.83 0.81 0.78 0.76 0.75 0.75 0.72 0.70 0.68 0.67 0.67 0.66 0.65 0.65 0.66 0.62 0.59 0.53 0.51 0.51 0.53 0.56 0.57 0.55 0.54 0.53 0.54 0.54 0.55 0.56 0.56 0.56 0.56 0.55 0.56 0.55 0.54 0.52 0.50 0.50 0.50 0.50 0.50 0.50 0.50 0.50 0.49 0.47 0.47 0.47 0.47 0.46 0.45 0.45 0.45 0.45 0.45 0.44 0.44 0.44 0.44 0.43 0.43 0.42 0.42 0.42 0.42 0.42 0.42 0.42 0.43 0.43 0.43 0.43 0.44
0.88 0.87 0.86 0.83 0.81 0.79 0.77 0.78 0.78 0.78 0.78 0.79 0.78 0.76 0.74 0.71 0.68 0.67 0.67 0.65 0.64 0.63 0.62 0.62 0.63 0.61 0.59 0.57 0.55 0.54 0.53 0.52 0.51 0.51 0.51 0.51 0.51 0.51 0.52 0.53 0.53 0.53 0.52 0.52 0.52 0.53 0.51 0.50 0.49 0.47 0.46 0.47 0.48 0.48 0.48 0.49 0.49 0.48 0.49 0.47 0.45 0.44 0.44 0.44 0.45 0.47 0.47 0.45 0.44 0.43 0.43 0.43 0.42 0.42 0.42 0.42 0.42 0.42 0.41 0.42 0.42 0.43 0.43 0.44 0.44
0.76 0.76 0.78 0.75 0.75 0.75 0.80 0.79 0.77 0.76 0.74 0.71 0.69 0.68 0.68 0.67 0.67 0.67 0.66 0.66 0.64 0.58 0.58 0.60 0.60 0.56 0.54 0.53 0.52 0.50 0.51 0.51 0.50 0.50 0.49 0.49 0.49 0.49 0.51 0.52 0.51 0.51 0.51 0.51 0.51 0.50 0.49 0.48 0.46 0.46 0.45 0.46 0.47 0.47 0.47 0.48 0.48 0.48 0.49 0.48 0.47 0.46 0.46 0.48 0.49 0.49 0.47 0.45 0.44 0.43 0.43 0.43 0.42 0.42 0.41 0.42 0.42 0.43 0.43 0.44 0.45 0.46 0.46 0.46 0.46
0.71 0.73 0.73 0.74 0.76 0.76 0.78 0.78 0.77 0.76 0.74 0.71 0.69 0.68 0.65 0.60 0.67 0.68 0.67 0.66 0.64 0.62 0.61 0.59 0.56 0.52 0.51 0.51 0.52 0.52 0.51 0.51 0.50 0.49 0.49 0.49 0.50 0.50 0.51 0.50 0.49 0.49 0.48 0.49 0.49 0.48 0.47 0.47 0.46 0.46 0.45 0.45 0.46 0.46 0.46 0.47 0.47 0.48 0.49 0.48 0.48 0.48 0.48 0.48 0.48 0.48 0.46 0.45 0.44 0.43 0.42 0.41 0.41 0.42 0.43 0.43 0.43 0.44 0.45 0.46 0.47 0.47 0.48 0.48 0.49
0.76 0.79 0.76 0.77 0.78 0.75 0.74 0.73 0.72 0.74 0.74 0.71 0.70 0.70 0.68 0.67 0.67 0.67 0.66 0.64 0.62 0.57 0.57 0.56 0.55 0.56 0.56 0.55 0.53 0.52 0.51 0.51 0.50 0.50 0.49 0.50 0.50 0.50 0.49 0.49 0.48 0.47 0.47 0.46 0.47 0.47 0.46 0.46 0.46 0.45 0.45 0.45 0.45 0.45 0.46 0.46 0.47 0.48 0.49 0.50 0.50 0.49 0.48 0.48 0.48 0.47 0.46 0.46 0.45 0.44 0.43 0.43 0.43 0.44 0.44 0.45 0.45 0.46 0.46 0.46 0.48 0.49 0.50 0.51 0.51
0.82 0.82 0.80 0.79 0.79 0.77 0.75 0.73 0.71 0.68 0.67 0.70 0.71 0.69 0.70 0.69 0.67 0.64 0.62 0.56 0.52 0.51 0.56 0.56 0.56 0.58 0.56 0.54 0.52 0.51 0.50 0.49 0.49 0.49 0.48 0.48 0.48 0.48 0.48 0.48 0.47 0.46 0.46 0.45 0.46 0.46 0.46 0.46 0.46 0.46 0.46 0.46 0.47 0.46 0.47 0.47 0.47 0.48 0.50 0.50 0.49 0.49 0.48 0.48 0.47 0.47 0.47 0.47 0.46 0.45 0.45 0.45 0.44 0.45 0.46 0.47 0.47 0.48 0.48 0.49 0.50 0.50 0.51 0.52 0.52
0.82 0.82 0.82 0.81 0.79 0.76 0.76 0.75 0.73 0.64 0.68 0.68 0.67 0.66 0.66 0.66 0.62 0.60 0.62 0.59 0.58 0.55 0.56 0.58 0.57 0.56 0.54 0.52 0.51 0.51 0.50 0.49 0.49 0.48 0.48 0.47 0.47 0.48 0.48 0.47 0.47 0.46 0.46 0.46 0.47 0.47 0.47 0.47 0.47 0.47 0.47 0.48 0.48 0.48 0.48 0.48 0.50 0.51 0.50 0.50 0.49 0.49 0.48 0.48 0.48 0.47 0.47 0.47 0.47 0.47 0.46 0.46 0.47 0.47 0.48 0.48 0.49 0.49 0.49 0.50 0.51 0.52 0.52 0.52 0.52
0.75 0.79 0.81 0.79 0.76 0.73 0.71 0.69 0.67 0.63 0.66 0.64 0.62 0.60 0.60 0.58 0.60 0.59 0.58 0.57 0.57 0.56 0.57 0.56 0.54 0.54 0.52 0.53 0.52 0.50 0.49 0.49 0.48 0.48 0.48 0.48 0.48 0.48 0.48 0.48 0.47 0.47 0.47 0.47 0.46 0.46 0.47 0.48 0.48 0.48 0.48 0.48 0.49 0.49 0.49 0.50 0.51 0.50 0.50 0.50 0.49 0.49 0.49 0.49 0.49 0.49 0.49 0.49 0.49 0.48 0.48 0.48 0.48 0.48 0.49 0.50 0.50 0.50 0.51 0.52 0.53 0.53 0.54 0.54 0.54
Wind_Speed
16 16 15 15 14 14 14 13 13 12 12 11 11 10 10 10 9 9 9 9 9 9 9 8 8 8 8 8 8 8 8 7 7 7 7 7 7 6 6 6 6 6 6 6 6 6 6 6 7 7 7 7 7 7 7 7 7 8 8 8 8 8 9 9 9 10 11 12 12 13 13 13 13 13 13 14 14 15 15 15 15 15 15 15 15
16 16 16 16 15 15 14 14 14 13 13 13 12 11 11 10 10 10 10 9 9 9 9 9 9 8 8 8 8 8 8 8 8 7 7 7 7 7 7 7 7 7 7 7 7 7 7 7 7 7 7 7 8 8 8 8 8 8 8 8 8 8 9 9 10 10 12 12 13 13 13 13 13 13 14 14 14 14 14 14 14 14 14 15 14
17 16 16 16 16 15 15 15 15 14 14 14 13 13 12 12 11 11 10 10 10 10 10 9 9 9 9 9 9 8 8 8 8 8 8 8 8 7 7 7 7 7 7 7 7 7 7 7 7 7 7 8 8 8 8 8 8 9 9 9 9 10 10 10 10 11 12 12 13 13 13 13 13 14 14 13 13 14 14 14 14 14 14 14 14
17 17 16 16 16 16 16 16 15 15 15 15 14 14 13 13 12 12 11 11 10 10 10 10 10 10 10 9 9 9 9 9 9 8 8 8 8 8 8 8 8 8 7 7 7 7 7 7 7 8 8 8 8 8 9 9 9 9 9 10 10 10 10 11 11 11 12 12 13 13 14 14 14 13 13 13 13 13 13 14 14 14 14 14 14
17 17 17 17 17 17 16 16 16 16 15 15 15 15 14 14 13 13 12 12 11 11 11 11 11 11 10 10 10 10 10 10 10 9 9 9 9 9 9 9 9 8 8 8 8 8 8 8 8 8 8 8 8 8 9 9 9 9 9 10 10 10 10 11 11 12 12 13 13 13 14 14 14 13 13 13 13 13 13 13 14 14 13 14 14
18 18 18 18 18 17 17 16 16 16 16 16 15 15 15 14 14 13 13 13 13 12 12 12 12 11 11 11 11 11 11 11 10 10 10 10 9 9 9 9 9 9 9 9 9 9 9 9 9 9 9 9 9 9 9 9 9 9 10 10 10 11 11 11 12 12 12 13 13 13 14 14 14 13 13 13 13 14 14 14 14 14 13 13 14
19 19 19 19 19 18 18 17 17 17 16 16 16 16 16 15 15 14 14 14 14 13 13 13 12 12 12 12 12 12 11 11 11 11 11 11 10 10 10 10 10 10 10 9 10 10 10 9 10 10 10 10 10 10 10 10 10 10 10 11 11 11 11 12 12 12 13 13 13 14 14 14 14 14 14 14 14 14 14 15 15 14 13 13 15
19 19 20 19 19 19 19 18 18 17 17 17 17 16 16 16 16 15 15 15 14 14 14 14 13 13 13 13 13 13 12 12 12 12 12 12 12 11 11 11 11 11 11 10 10 11 11 11 11 11 11 11 10 10 10 10 10 10 11 11 11 12 12 13 13 13 14 14 14 14 15 15 15 15 15 14 14 15 16 16 15 14 14 15 16
20 20 20 20 19 19 19 19 19 18 18 18 18 17 17 17 17 17 16 16 16 15 15 15 14 14 14 14 14 14 14 14 13 13 13 13 13 13 12 12 13 12 12 12 12 11 11 11 11 11 11 11 11 11 11 11 11 12 12 12 13 13 13 14 14 14 14 15 15 15 15 15 15 15 15 15 16 17 16 16 15 16 17 17 17
21 21 21 21 20 20 20 19 19 19 19 18 19 19 18 17 17 17 17 17 17 17 17 16 16 16 15 15 15 15 15 14 14 14 14 14 14 13 13 13 13 13 13 13 13 12 12 12 12 12 12 13 13 13 13 13 13 14 14 14 14 14 14 14 14 14 15 15 15 15 16 16 16 16 16 16 17 17 17 17 17 18 18 18 17
22 22 22 21 21 20 20 20 19 20 20 19 19 20 19 18 18 18 17 17 17 17 17 17 17 17 16 16 16 16 15 15 15 15 15 15 15 14 14 14 14 14 14 14 13 13 13 13 13 13 13 13 13 13 14 14 14 14 14 14 14 14 15 15 15 15 15 15 16 16 16 16 17 17 17 17 17 17 17 17 18 18 18 18 18
23 23 23 22 21 21 21 20 18 18 19 18 18 18 19 19 19 18 18 18 18 18 18 18 18 17 17 18 17 17 16 16 16 16 16 16 16 16 16 15 15 15 14 14 14 14 14 14 14 13 13 13 13 13 14 14 14 14 14 14 15 15 15 15 16 16 16 16 17 17 17 17 17 17 17 17 17 17 17 18 18 18 19 20 20
24 24 25 24 23 22 22 21 20 18 18 18 18 19 19 20 20 19 19 19 19 20 20 19 19 19 19 18 18 18 17 17 17 18 18 18 17 18 18 17 16 16 16 16 16 16 15 15 15 14 14 14 14 14 14 14 15 15 15 15 16 16 16 16 17 17 17 18 18 18 17 17 17 17 17 17 17 18 18 18 19 19 20 21 22
24 24 24 24 23 22 22 22 22 22 21 20 20 20 21 21 21 21 21 21 21 21 20 19 19 19 19 19 19 18 19 19 19 19 19 19 19 19 19 19 18 18 18 18 17 17 16 16 16 15 16 16 16 16 15 15 16 16 16 16 16 17 17 17 18 18 18 18 19 19 19 18 18 18 17 18 18 19 19 20 20 21 21 22 22
24 23 23 22 22 22 22 22 22 23 23 23 22 22 22 22 22 22 22 22 22 21 19 19 19 19 19 19 18 19 19 20 20 20 20 20 20 20 20 20 20 19 19 18 18 18 18 17 17 17 17 17 17 17 17 17 17 17 17 17 18 18 18 17 17 17 17 17 18 19 19 19 19 19 19 19 19 20 20 21 22 22 22 23 23
25 25 24 23 22 22 22 22 23 23 23 24 24 23 23 23 23 23 23 23 23 21 19 19 20 20 20 20 19 19 20 20 21 21 21 21 21 21 21 21 20 20 19 19 19 19 19 18 18 18 18 18 18 18 18 18 18 18 19 19 19 19 19 18 18 18 18 18 19 19 19 20 20 20 21 21 21 21 22 22 22 22 23 23 23
24 24 24 23 22 21 21 22 24 24 23 23 23 23 23 24 24 24 24 24 24 23 21 21 21 22 22 22 21 21 21 21 21 22 22 22 22 22 21 21 21 20 20 19 20 20 19 19 19 19 19 19 20 20 20 20 19 20 20 20 20 20 20 19 20 20 20 21 21 21 22 22 22 22 22 22 22 22 22 22 22 22 22 22 22
23 23 23 23 22 21 21 22 23 24 24 23 22 22 22 22 23 24 24 25 24 24 23 22 22 22 23 23 23 23 22 22 22 22 22 22 22 22 22 21 21 21 20 20 20 20 20 19 20 20 20 21 21 21 21 21 21 21 21 21 21 21 20 20 21 21 22 22 23 23 23 22 22 22 22 21 21 21 21 21 21 22 22 22 22
23 23 23 22 22 22 22 22 22 22 22 22 20 20 20 21 22 23 23 24 24 24 24 23 23 23 23 23 23 23 23 23 23 23 23 23 23 22 22 22 21 21 21 21 21 20 20 20 20 20 21 21 22 22 22 22 22 21 21 21 21 21 21 22 22 22 23 23 22 22 22 22 22 21 21 21 21 21 21 21 21 21 21 22 22
22 22 22 22 22 22 22 21 20 20 20 20 20 20 20 21 21 21 21 22 22 22 23 23 24 24 24 25 25 24 24 24 24 24 23 23 23 23 22 21 21 21 21 21 21 21 21 21 21 21 21 22 22 22 22 22 22 22 21 21 22 22 22 23 23 23 23 22 22 22 21 21 21 21 21 21 21 21 21 21 21 21 21 21 22
21 21 22 22 22 22 22 21 20 20 19 19 20 20 20 19 19 19 20 20 20 20 20 21 22 22 23 23 24 23 23 23 23 23 23 22 22 22 22 21 21 20 20 20 21 21 21 22 22 22 21 22 22 22 22 21 21 21 21 21 21 22 22 22 22 22 22 22 22 22 21 21 21 21 21 21 21 21 21 21 21 21 21 21 22
19 19 20 20 21 22 22 22 21 20 19 19 19 19 19 18 18 17 17 17 17 17 16 17 19 19 19 19 19 19 20 20 21 22 22 22 22 22 21 21 21 21 21 21 21 21 21 21 21 21 21 21 21 21 21 21 21 20 20 20 20 20 21 21 22 22 22 22 22 22 21 21 21 20 20 20 20 21 21 21 20 20 21 21 22
18 18 19 19 19 20 20 20 20 20 20 19 19 18 18 17 17 16 15 15 15 14 14 15 15 15 15 14 14 15 16 16 16 17 18 20 21 21 21 21 21 21 20 20 20 21 21 20 20 20 20 19 19 18 19 19 19 19 19 19 19 19 20 20 20 21 21 21 21 20 20 20 20 20 20 20 21 21 21 21 21 21 22 22 22
18 18 18 18 18 18 18 18 19 19 19 19 18 17 16 16 16 16 15 15 14 14 14 14 14 14 14 13 13 12 12 13 13 14 15 16 17 19 20 20 20 20 19 18 19 19 20 19 19 18 18 17 17 17 17 17 17 17 18 18 18 18 19 19 20 20 20 20 20 20 20 20 20 20 21 21 22 22 22 22 22 23 23 23 24
19 19 18 18 18 18 18 17 17 17 17 18 17 17 16 16 16 16 15 15 15 15 14 14 14 14 14 14 14 13 13 13 13 13 13 13 14 16 17 18 18 19 18 17 17 17 17 17 17 17 17 17 17 17 17 17 17 17 18 18 18 18 19 20 20 20 20 20 21 21 21 21 21 22 22 22 22 22 22 23 24 24 24 25 25
20 20 19 19 19 18 18 17 17 17 17 17 17 17 17 17 16 16 16 16 16 15 15 15 14 14 14 15 14 14 13 13 13 12 12 11 11 12 13 15 15 15 15 15 15 15 15 15 15 16 16 17 17 17 17 17 17 18 19 19 18 19 20 21 21 21 21 21 21 22 22 22 23 23 23 23 22 22 23 24 24 24 25 25 25
21 21 21 20 20 20 19 19 18 18 18 18 17 17 16 16 16 17 17 16 16 16 16 16 16 15 15 15 15 14 13 13 12 12 12 11 10 10 10 11 12 13 13 13 14 14 14 14 15 16 16 17 17 16 17 17 18 18 19 19 19 19 20 21 21 21 21 21 22 22 22 22 23 23 23 23 22 23 23 23 23 24 24 24 25
23 22 22 22 22 21 21 20 19 19 18 18 18 17 17 16 16 16 16 16 16 16 15 15 16 16 15 15 15 14 14 14 13 13 13 12 12 11 11 11 12 13 13 13 14 14 14 14 15 15 15 16 16 16 17 18 19 19 19 19 19 19 20 20 20 21 21 21 21 21 22 22 22 22 22 22 23 23 23 23 23 24 24 24 24
23 23 23 23 22 22 22 22 21 20 19 19 19 19 18 18 18 17 17 16 16 16 16 15 15 15 15 15 15 15 15 14 14 14 14 13 13 13 13 13 13 13 14 14 14 14 14 14 14 15 15 15 16 17 17 18 19 19 19 19 19 19 19 20 20 20 20 21 21 21 21 22 22 22 23 23 23 23 23 24 24 25 25 25 25
23 23 23 22 22 23 24 22 21 20 20 19 19 19 19 18 18 18 18 17 17 16 16 15 15 15 15 14 15 15 15 15 15 15 14 14 13 13 14 14 14 14 15 15 15 15 16 16 16 17 17 17 17 18 18 18 19 19 19 19 19 19 20 20 21 21 21 21 22 22 22 22 23 24 24 24 24 25 25 25 26 26 27 27 27
23 23 23 23 23 24 23 22 21 21 21 21 21 20 20 19 19 18 18 18 17 17 16 16 16 16 16 16 16 16 17 17 17 17 16 16 16 16 16 16 16 16 17 17 17 18 18 18 18 19 19 18 19 19 19 19 20 20 20 20 20 21 21 22 23 23 23 23 23 23 23 24 25 25 26 26 26 26 27 27 27 27 28 28 29
24 24 23 23 23 23 22 22 22 22 22 22 22 22 21 20 20 19 19 19 18 18 18 18 18 18 18 18 18 18 19 19 19 19 18 18 18 18 18 18 19 19 19 19 19 19 19 19 20 20 20 20 20 21 21 21 21 21 22 22 22 23 23 24 24 24 25 25 25 25 25 26 27 27 27 27 28 28 28 29 29 29 29 30 30
23 23 23 23 23 23 22 22 22 22 22 22 22 22 22 22 21 20 20 20 19 19 19 19 19 20 19 19 19 20 20 20 20 20 20 20 19 19 19 20 20 20 20 20 20 20 21 21 21 22 22 22 22 23 23 23 23 23 24 24 24 25 25 26 26 26 27 27 27 27 27 28 28 29 29 29 30 30 30 31 31 31 31 32 32
22 22 22 23 23 23 23 23 23 22 22 23 23 23 23 22 22 21 21 21 21 21 21 21 21 21 21 21 21 21 21 21 21 21 21 21 21 21 21 21 21 21 20 21 21 21 22 22 23 23 23 24 24 24 24 25 25 25 25 26 26 27 27 27 27 28 29 29 28 28 29 29 30 30 31 31 31 31 32 32 33 33 33 34 35
23 23 23 23 24 23 23 23 23 23 23 23 23 23 23 23 23 22 23 23 22 22 22 22 22 22 22 23 23 23 23 23 23 23 22 22 22 22 21 21 21 21 21 22 22 22 23 23 23 24 24 24 25 25 25 26 26 26 26 27 27 28 28 28 29 29 30 30 30 30 30 30 31 31 32 32 33 33 34 34 34 34 35 36 36
24 24 24 25 25 24 24 24 23 23 23 23 24 23 23 23 24 24 24 24 23 23 23 23 23 23 23 23 23 23 23 23 23 23 23 23 22 23 22 22 22 22 23 23 24 24 24 24 25 25 25 25 26 26 26 26 27 27 27 28 28 29 29 29 29 30 30 30 31 31 31 32 32 33 33 34 34 35 35 35 36 37 37 38 38
25 24 25 26 26 25 25 25 24 24 24 24 24 24 24 24 24 25 25 25 24 24 24 24 24 23 23 23 24 24 23 23 23 23 24 23 23 23 23 23 23 23 23 23 24 25 25 25 25 26 26 26 27 27 27 27 27 27 28 29 29 29 29 29 30 30 30 30 31 32 32 33 33 34 34 35 35 36 36 37 38 38 39 39 39
25 25 25 26 26 26 26 26 25 25 25 25 25 25 24 24 24 24 24 25 25 24 24 24 24 24 24 23 24 24 23 23 23 23 24 24 24 24 24 24 24 24 24 24 24 25 25 25 26 26 26 27 27 28 28 28 28 28 29 29 29 29 30 30 30 30 31 31 31 32 33 33 34 34 35 35 36 37 38 39 39 40 40 40 40
24 26 26 26 26 27 27 27 26 26 27 27 26 26 26 26 25 25 25 25 25 25 25 25 24 24 23 23 23 23 23 23 24 24 24 24 24 24 24 24 24 24 24 25 25 25 25 26 26 27 27 27 27 27 28 28 28 29 29 29 29 30 30 30 31 31 32 32 33 33 34 34 35 35 36 37 38 39 40 40 40 41 41 42 42
23 24 26 26 27 27 28 28 27 27 28 28 28 27 27 27 26 26 26 26 26 25 26 25 24 23 24 24 24 24 24 23 23 24 24 24 24 24 24 25 25 25 25 25 26 26 26 26 27 27 27 27 27 28 28 28 28 29 29 30 30 31 31 31 32 32 32 33 33 34 35 35 36 37 38 39 39 40 41 42 42 43 43 44 44
25 24 24 25 25 26 27 27 28 28 28 29 29 29 28 28 27 27 27 26 26 26 26 25 24 24 25 26 26 26 25 24 24 24 24 24 24 25 25 25 25 25 25 25 26 26 26 27 27 27 27 27 28 28 29 29 29 29 30 30 31 31 32 32 33 33 33 34 35 35 36 37 38 39 40 41 41 42 43 44 45 45 46 46 46
27 26 26 26 25 25 25 25 26 27 28 28 29 28 28 28 27 27 27 27 27 27 26 26 25 25 26 26 26 26 26 26 25 24 24 24 24 25 25 25 25 25 25 25 25 26 26 26 26 27 27 28 28 29 29 29 30 30 30 31 31 32 32 32 33 34 35 36 36 37 38 39 40 41 42 42 43 44 45 45 46 46 47 47 48
28 27 27 27 27 26 25 24 24 25 25 26 27 26 26 26 26 26 26 26 26 26 26 25 25 25 25 25 25 25 25 25 25 24 24 24 24 24 24 24 24 24 24 25 25 25 26 26 26 26 27 28 28 29 29 29 30 31 31 32 32 32 32 33 34 35 36 37 38 39 40 40 41 42 43 44 44 45 46 46 46 47 47 48 49
27 27 26 26 26 26 25 24 24 24 24 25 25 25 25 25 25 25 25 25 25 25 25 25 24 24 24 23 23 23 23 23 23 23 23 23 23 23 23 24 24 25 25 25 26 26 26 26 27 27 28 28 29 29 30 30 31 32 32 32 33 33 34 35 36 37 38 38 39 40 41 42 43 44 45 45 45 46 46 47 47 48 48 49 49
28 27 26 26 26 26 26 25 25 25 25 24 24 24 24 25 25 25 25 25 24 24 24 24 23 23 22 22 22 22 22 22 22 23 23 23 23 23 24 24 25 25 26 26 26 27 27 27 28 28 29 29 30 30 31 31 32 32 32 33 33 34 35 36 37 38 39 40 41 42 43 43 44 45 46 46 46 47 47 47 48 49 49 49 50
28 28 27 27 26 26 26 26 26 26 26 25 24 24 24 25 25 25 24 24 24 24 24 23 23 22 22 22 22 22 22 22 22 22 23 23 24 24 25 25 25 26 26 27 27 27 28 28 28 29 29 30 30 31 31 32 32 33 33 33 34 35 36 38 38 39 40 41 42 43 44 44 45 45 46 46 47 47 48 48 49 49 50 50 51
28 28 28 29 28 28 27 26 26 26 25 25 25 25 24 24 25 24 24 23 23 23 23 23 23 23 23 22 22 22 22 22 23 23 23 24 24 24 25 25 26 26 27 27 27 28 28 28 29 29 30 30 31 32 32 32 33 33 34 34 35 36 37 39 39 40 41 42 43 43 44 44 45 46 46 47 48 48 49 49 50 50 51 51 52
26 27 28 28 28 29 28 28 27 27 26 26 26 25 24 24 24 24 24 24 24 24 23 23 23 23 22 22 22 23 23 23 24 24 24 24 24 25 26 26 26 27 27 28 28 28 29 29 29 30 30 31 32 32 32 33 34 34 34 35 36 37 38 39 40 41 42 42 43 44 45 45 46 46 47 48 48 49 49 50 50 51 51 52 52
25 25 25 26 27 28 28 28 28 28 28 28 27 26 25 25 24 24 23 23 24 24 24 23 23 23 23 23 24 24 24 24 24 24 24 25 26 26 26 26 27 27 28 28 28 29 29 29 30 30 31 31 32 32 33 34 34 34 35 36 37 38 39 40 40 41 42 42 43 45 46 46 46 47 48 48 49 50 50 51 51 51 51 51 52
26 24 23 24 24 25 26 27 28 28 28 28 27 27 27 26 26 25 24 23 23 24 24 23 23 23 23 24 24 24 24 25 25 25 26 26 26 26 26 27 27 27 28 28 29 29 30 30 30 31 31 32 32 33 34 34 35 35 36 37 38 39 39 40 41 41 42 43 44 45 46 46 47 47 48 48 49 49 50 50 50 51 51 51 51
28 27 25 24 24 24 25 25 26 27 27 27 27 27 28 27 27 26 26 25 25 25 24 24 24 24 24 24 25 25 25 26 26 26 26 27 26 27 27 27 28 28 28 29 29 30 30 31 31 32 32 33 33 34 34 35 35 36 37 38 39 39 40 40 41 42 43 44 45 46 46 46 46 47 47 48 48 49 49 49 49 49 48 48 48
Wind_Direction
203 204 204 203 203 203 203 204 203 203 201 201 202 203 204 203 204 204 203 204 204 204 206 204 205 207 207 208 209 211 213 212 215 219 220 225 231 234 238 241 245 249 251 254 254 256 260 263 266 269 271 273 274 275 278 280 280 282 283 285 288 290 290 290 293 298 301 305 307 309 311 312 314 316 317 318 320 321 322 323 325 327 328 330 332
205 206 206 207 207 206 206 206 206 206 206 207 207 207 208 208 208 208 207 208 209 210 211 210 211 211 212 214 215 216 219 219 220 223 226 229 233 237 240 244 247 250 253 257 258 259 262 264 267 270 271 273 276 278 279 281 283 285 286 288 291 293 293 294 296 298 301 304 307 309 311 313 314 316 318 319 321 323 324 325 326 327 329 331 333
207 207 208 209 210 210 210 210 210 210 210 211 211 211 212 211 212 212 212 213 214 215 216 216 217 217 217 219 219 220 223 226 227 228 231 234 235 238 241 243 247 250 252 256 258 260 263 265 268 270 271 273 275 277 280 280 284 288 290 291 294 295 295 297 299 300 301 304 307 310 313 314 315 317 319 320 321 323 325 325 326 327 328 330 332
208 209 209 210 212 212 213 214 213 213 213 214 214 214 215 215 215 216 217 218 219 220 220 220 222 223 222 223 224 225 227 230 232 233 235 238 239 241 244 244 248 252 253 255 258 260 263 266 269 271 273 275 275 276 278 279 282 285 288 291 293 295 296 298 299 300 302 304 307 310 312 314 315 317 319 320 320 322 323 324 325 326 328 330 331
209 210 212 212 213 214 214 215 216 216 217 217 218 217 218 218 219 220 221 223 223 224 223 223 224 226 227 228 229 231 232 234 236 236 237 240 242 245 247 247 250 253 255 257 258 260 262 265 268 270 272 275 276 278 279 280 282 284 286 289 292 294 295 296 298 300 301 304 307 309 311 313 314 316 317 318 318 319 321 323 324 326 326 326 326
211 212 215 216 217 217 217 217 218 219 219 220 221 221 221 221 222 223 225 226 226 226 227 227 228 229 231 232 233 234 235 236 238 238 239 241 243 246 248 249 252 254 256 258 259 261 263 264 267 269 271 273 274 277 280 280 282 284 286 289 291 293 295 296 298 300 301 303 305 307 309 311 312 313 315 316 316 317 319 320 321 323 322 321 322
214 215 217 218 220 221 221 221 221 222 221 222 223 223 223 225 225 226 228 229 229 229 230 230 231 232 234 235 235 236 237 238 240 240 241 242 244 246 249 251 253 255 256 259 261 262 263 265 267 269 271 273 274 276 279 280 282 285 287 289 292 293 295 297 298 299 300 302 304 305 307 309 311 311 313 315 315 315 315 315 316 319 320 319 320
218 218 219 221 223 223 224 224 225 225 225 225 226 226 226 226 227 229 231 231 231 232 232 233 234 235 236 237 237 238 239 241 242 243 243 245 246 247 250 252 254 255 257 259 262 264 265 267 268 269 270 273 274 275 277 278 281 284 286 288 290 292 294 295 297 299 300 301 303 305 306 308 309 309 309 311 312 313 314 314 315 319 319 319 319
220 221 222 225 226 226 227 227 227 229 229 228 229 231 231 229 229 231 233 233 234 234 235 236 238 238 239 240 241 241 242 243 245 246 245 246 248 249 251 252 255 257 258 259 262 265 268 269 270 271 272 272 272 273 275 277 280 284 285 286 288 291 293 295 296 298 300 300 302 304 305 306 307 308 309 310 310 312 314 316 317 317 317 317 319
224 225 226 228 229 229 229 230 229 230 231 231 231 232 235 235 233 232 232 233 235 236 236 237 239 240 242 243 242 243 244 245 248 249 247 247 249 250 252 254 256 258 259 260 262 265 268 270 272 272 271 271 272 272 274 276 280 283 285 285 286 289 291 293 295 296 298 299 301 302 303 303 305 307 307 308 308 310 312 314 314 315 316 317 318
227 228 229 231 233 232 232 232 231 231 232 233 233 232 235 238 237 235 234 235 237 238 238 239 240 241 243 243 243 244 246 247 250 251 250 250 251 251 253 256 258 259 260 261 263 266 268 270 273 273 271 271 271 271 274 277 280 283 284 285 287 288 290 291 293 294 296 297 299 301 302 303 304 305 306 306 307 308 310 311 312 313 316 316 317
230 230 232 235 236 236 236 235 235 234 233 234 234 234 235 238 239 239 239 239 239 240 240 242 242 243 244 244 244 247 249 250 251 252 252 253 254 253 254 257 258 260 261 262 265 267 268 269 272 273 273 276 275 273 275 278 279 281 282 284 287 288 288 289 290 292 294 295 297 299 301 302 304 305 306 307 308 308 309 310 311 311 313 314 313
233 233 235 237 237 238 238 238 238 238 235 235 236 237 237 238 239 240 240 241 241 241 242 243 244 245 247 247 246 247 250 250 250 252 253 255 255 254 255 257 260 261 262 263 266 267 267 268 270 270 272 276 277 276 277 278 279 281 282 283 286 287 287 287 288 290 292 293 295 297 299 301 303 304 305 306 307 308 308 308 308 309 309 310 310
237 238 238 239 239 240 240 241 241 239 238 237 238 238 239 240 240 241 241 242 243 242 242 242 244 246 248 249 248 247 249 251 251 251 252 254 255 255 255 257 260 261 262 263 264 265 266 268 269 271 272 274 275 276 278 279 281 282 282 283 285 287 287 288 289 290 291 292 292 294 297 298 299 301 302 303 304 305 306 306 307 307 307 307 308
242 244 244 243 243 242 242 242 241 239 239 240 239 239 240 241 242 242 242 242 244 243 242 242 245 247 247 248 249 249 250 252 253 252 253 254 255 255 256 258 259 260 261 262 263 264 266 268 269 271 272 273 275 277 278 278 279 280 282 283 285 286 287 289 290 291 292 293 293 295 296 296 296 297 298 300 301 302 303 304 305 306 306 307 308
244 246 247 246 245 243 242 241 240 240 241 241 241 240 241 242 244 244 244 244 244 243 242 243 246 248 248 249 250 251 253 254 254 254 254 255 255 255 256 258 258 259 260 262 262 263 266 267 268 269 270 272 275 277 279 278 277 279 281 282 284 285 285 287 288 290 291 292 293 294 295 295 295 296 297 299 299 300 301 302 304 305 305 305 307
244 245 246 246 245 244 242 240 240 241 242 242 242 243 244 244 245 246 246 247 246 244 245 247 249 249 249 250 250 251 253 255 255 255 255 255 255 255 256 257 257 257 259 260 262 264 265 267 268 269 270 272 274 277 278 278 278 279 281 282 283 283 284 285 287 288 290 291 292 292 293 295 296 297 298 299 300 300 301 303 305 305 305 305 306
243 244 244 245 246 246 244 241 240 241 243 244 245 246 246 246 246 247 248 249 249 248 248 249 250 249 250 251 252 252 252 255 256 256 256 257 255 254 255 255 256 257 258 259 261 263 265 267 268 269 270 273 275 276 278 278 279 280 281 281 282 282 284 285 287 288 290 291 291 292 292 294 295 296 297 298 300 301 302 304 305 306 306 306 306
243 244 245 246 246 247 247 244 242 243 245 247 247 247 247 247 248 248 248 249 251 250 249 249 250 251 251 252 253 253 253 254 256 257 257 257 256 255 255 255 255 256 258 260 261 263 265 268 269 270 271 273 274 276 278 279 279 279 280 281 282 283 284 286 287 289 290 291 291 291 292 293 294 295 296 297 299 301 302 303 304 305 305 306 306
244 245 246 246 246 247 248 247 245 245 246 247 248 249 250 249 248 248 248 250 251 251 251 250 251 253 253 253 253 253 253 254 256 258 258 256 255 255 255 255 255 255 257 259 261 262 264 266 267 270 272 273 275 277 279 280 279 278 278 280 281 283 285 286 288 289 290 290 291 291 291 292 293 294 295 296 297 299 300 301 303 303 304 304 306
246 246 246 246 245 246 247 248 248 247 246 246 248 250 250 248 247 247 248 250 251 252 252 252 252 252 253 252 252 252 253 254 256 258 257 255 254 254 254 254 255 255 257 259 260 262 264 265 267 270 272 274 276 278 279 280 279 279 279 280 281 283 285 286 287 289 289 289 289 289 290 291 292 293 294 296 297 298 300 301 301 302 303 304 305
247 246 246 245 244 245 246 246 247 248 247 246 247 248 248 249 249 249 248 248 248 250 251 251 250 249 249 251 251 251 253 255 257 257 256 254 253 252 251 252 255 257 258 259 261 262 264 266 267 269 273 276 278 278 278 278 279 279 280 282 282 284 285 285 286 288 289 289 289 289 290 291 292 292 294 296 298 300 301 301 302 303 303 303 304
247 247 247 246 245 245 245 246 246 248 247 246 246 246 246 248 248 247 246 245 245 246 248 250 249 246 246 249 251 252 254 254 255 257 256 255 253 252 251 253 255 256 257 259 261 262 264 266 268 270 273 276 278 278 278 278 278 278 280 282 283 285 287 288 289 290 290 289 289 290 291 292 292 293 294 296 298 299 300 301 303 304 303 303 303
246 247 248 248 246 245 245 246 246 245 245 244 244 243 244 245 245 245 246 246 245 246 247 250 250 248 247 247 249 253 255 254 255 260 261 260 258 254 252 253 254 255 256 258 260 262 264 265 266 268 270 272 274 276 278 280 279 279 282 284 285 285 287 289 291 292 291 290 290 290 291 291 292 292 293 294 296 297 298 299 302 303 302 302 303
245 245 245 246 246 246 244 244 243 243 242 242 241 241 243 243 243 244 245 246 245 244 245 247 249 248 247 247 249 254 257 257 259 262 264 263 260 255 253 253 255 255 254 255 258 260 261 263 264 266 269 270 272 274 276 278 280 280 283 285 286 286 288 289 291 292 292 291 290 290 290 290 291 292 292 292 293 294 296 298 300 301 301 301 302
245 245 244 245 245 244 242 242 242 243 243 242 241 242 244 245 245 245 246 246 246 244 244 245 246 248 247 246 248 252 254 253 254 257 259 259 259 258 255 251 250 250 250 253 257 259 259 261 264 267 269 271 273 275 276 279 281 282 284 285 286 286 288 289 290 291 292 292 291 290 290 290 291 291 292 292 292 293 294 296 297 299 300 301 301
243 244 244 244 243 243 243 242 243 245 246 243 242 242 244 244 244 245 246 247 247 246 246 246 248 250 249 248 247 249 248 248 249 253 254 254 255 256 254 249 247 249 251 254 257 258 260 263 265 267 269 272 275 277 279 282 283 284 285 285 286 287 289 289 290 291 292 292 291 291 291 291 291 292 293 293 293 293 294 296 297 299 300 301 301
244 243 243 243 242 242 243 242 242 244 245 243 241 241 243 244 244 245 247 248 247 246 246 248 250 251 250 248 246 246 247 250 253 254 255 254 253 254 255 253 252 252 254 256 257 259 261 264 267 269 272 274 277 278 280 282 283 284 286 286 286 288 289 289 290 291 291 291 291 291 292 292 293 294 295 295 295 294 294 295 297 299 300 301 301
244 243 244 244 242 242 241 240 241 242 242 241 240 240 242 243 244 246 248 248 246 245 246 248 249 249 248 247 245 244 247 252 256 258 259 259 258 258 258 258 255 254 256 259 260 261 264 267 269 272 274 277 278 278 280 282 282 284 286 286 287 288 289 289 291 293 292 292 293 293 293 294 295 296 296 296 296 296 295 296 297 299 300 301 301
242 242 243 242 241 241 240 239 239 240 241 241 240 240 242 244 244 245 246 245 245 245 245 245 245 244 243 244 244 244 247 251 256 260 262 263 263 262 262 262 262 261 262 264 265 266 270 273 275 276 278 280 281 281 283 285 284 284 285 286 287 288 288 290 293 294 293 294 295 294 294 294 295 296 297 297 297 297 297 297 298 299 300 300 301
241 240 241 240 240 242 240 237 237 238 240 240 240 240 243 244 244 244 244 244 243 244 244 244 245 246 246 246 247 249 251 253 257 260 263 264 264 265 265 265 265 266 267 267 268 271 275 277 279 279 280 283 283 282 284 286 286 286 286 287 288 289 289 291 293 293 293 294 295 295 294 295 295 296 297 297 297 297 297 298 298 298 298 299 299
241 239 239 239 240 241 239 237 236 237 239 241 240 240 242 243 242 243 245 244 244 244 244 245 247 249 250 251 251 252 254 256 258 261 262 262 263 264 265 266 267 268 269 269 270 273 275 277 279 281 282 283 284 284 285 286 286 287 288 288 289 290 290 292 293 293 293 294 294 294 294 294 295 296 296 296 296 297 297 297 298 298 298 298 298
243 240 238 238 239 239 238 237 237 237 238 240 240 239 241 242 242 244 245 246 246 246 247 248 249 250 252 253 253 254 255 257 259 261 262 263 263 264 266 267 268 270 270 270 272 274 276 277 279 280 281 283 284 285 286 287 287 287 288 288 289 290 291 292 292 293 293 294 293 293 294 294 295 295 295 295 296 296 296 296 297 297 297 297 297
242 240 237 236 237 238 238 237 237 237 238 240 240 241 242 242 242 244 245 246 248 249 250 251 251 251 252 253 254 255 256 258 260 261 262 263 264 265 267 268 269 270 271 272 274 276 277 278 280 280 282 283 284 285 286 287 287 288 288 288 288 289 289 290 291 292 293 293 292 293 294 294 294 295 295 295 295 295 295 296 296 296 296 296 297
241 240 238 236 237 237 238 238 238 239 240 240 241 243 243 242 244 245 246 246 248 248 250 252 254 254 254 254 254 255 256 258 260 262 262 263 265 266 268 269 270 271 272 274 275 276 278 279 279 280 281 282 283 284 285 285 286 287 287 288 288 288 289 290 290 291 292 292 292 293 293 294 294 294 294 295 295 295 295 295 295 295 295 295 296
240 240 239 238 238 238 239 239 239 240 241 242 243 245 245 244 246 247 247 248 249 248 249 252 255 255 255 255 256 256 257 258 260 262 263 264 265 266 268 270 271 271 273 275 276 277 278 279 279 280 280 281 282 282 283 284 285 286 286 287 288 288 288 289 290 290 291 292 292 292 293 293 293 294 294 294 295 294 294 294 294 294 294 294 295
238 239 239 239 239 240 240 241 241 242 242 242 244 246 246 246 247 248 248 249 250 249 249 252 254 255 256 257 258 257 258 260 261 263 264 265 265 267 269 271 272 272 273 275 277 277 278 279 280 280 281 281 282 283 283 284 285 285 286 287 288 288 288 289 289 290 290 291 291 291 292 292 293 293 294 294 294 294 294 294 294 294 294 295 294
240 239 239 240 241 241 240 241 242 243 243 243 243 245 246 246 247 248 249 249 250 250 250 252 254 255 256 258 258 257 258 261 263 265 265 265 266 268 269 271 272 273 274 275 276 277 278 279 280 280 281 282 283 284 284 284 285 285 286 287 287 288 289 289 289 290 290 290 290 291 291 292 293 293 293 293 293 293 294 294 294 295 295 295 294
242 242 241 241 242 242 241 241 241 243 243 243 243 245 247 247 247 248 249 250 250 250 251 253 254 254 254 255 257 257 258 260 263 263 263 264 267 268 269 271 272 273 274 275 276 277 278 279 280 280 281 282 282 283 284 284 285 286 287 287 287 288 288 289 289 290 290 290 290 291 291 292 292 292 291 291 292 293 293 293 294 294 294 294 294
244 245 244 243 243 242 241 241 242 243 243 243 243 245 247 248 248 249 250 250 250 250 251 253 253 253 253 254 257 259 259 260 262 262 261 263 266 268 269 271 272 273 274 276 276 277 278 279 280 281 282 283 283 283 284 284 285 286 286 287 287 288 288 289 289 290 290 291 290 290 291 291 291 291 291 291 292 292 293 293 293 293 292 292 292
245 246 245 244 243 243 242 241 242 243 243 242 243 245 246 247 248 249 250 250 250 250 251 252 253 254 254 255 259 260 258 258 262 264 263 264 267 268 269 271 272 273 275 276 276 277 278 279 280 281 282 283 284 284 285 285 286 286 287 288 289 289 289 289 289 289 290 290 290 291 291 291 291 291 292 292 292 293 293 293 292 292 292 291 291
244 244 243 243 243 242 241 241 241 242 243 243 243 244 245 246 247 248 249 250 250 250 251 252 253 255 256 258 260 259 256 256 261 265 265 265 267 268 270 271 272 273 274 276 277 278 278 279 280 281 282 283 284 284 285 286 286 287 288 289 290 290 290 290 290 290 290 291 291 291 292 292 292 293 293 293 293 293 293 293 293 292 292 292 291
244 244 245 245 242 240 242 242 241 242 244 244 244 245 245 245 246 247 248 249 249 250 251 251 252 255 258 259 259 257 256 258 262 264 265 266 268 269 270 271 271 272 274 276 277 278 279 280 281 282 283 284 284 285 286 287 287 287 287 288 289 290 290 290 290 291 291 291 291 292 292 293 293 294 294 294 293 293 293 293 293 292 292 292 291
243 243 244 244 240 239 241 244 243 242 244 245 244 244 244 245 245 246 247 248 248 249 251 251 252 254 257 258 258 258 258 260 262 263 264 266 267 268 269 270 271 272 274 276 277 278 279 280 281 282 283 284 285 285 286 286 287 287 288 288 288 289 290 290 291 291 291 292 292 293 294 294 294 294 295 295 294 294 294 294 293 293 293 292 292
242 242 242 242 240 239 240 243 243 243 243 244 244 243 243 243 244 246 247 247 248 249 251 251 252 253 256 257 258 259 260 261 262 263 264 265 266 267 269 271 272 274 275 276 277 278 279 280 281 282 283 284 285 285 286 286 287 288 288 288 289 290 291 291 292 292 293 294 294 294 295 295 295 295 296 296 296 295 295 294 294 294 294 293 293
242 242 242 241 240 240 240 241 242 242 242 242 242 243 243 244 244 245 246 247 247 248 250 252 252 253 255 256 257 259 260 261 263 264 265 266 267 269 270 272 274 275 276 277 278 279 280 281 282 283 284 285 285 286 287 287 288 289 289 289 290 291 292 293 294 294 295 296 296 295 296 296 296 296 296 296 296 296 295 295 295 295 294 294 294
242 243 243 241 240 240 240 240 241 242 242 241 241 242 242 243 243 244 245 247 247 248 250 251 252 254 255 255 257 259 260 261 263 264 266 268 269 270 272 273 275 276 277 278 279 280 281 282 283 284 285 286 286 287 288 288 289 290 290 291 292 293 294 295 296 296 297 297 297 297 296 297 297 297 297 297 297 297 296 296 296 295 295 295 294
243 244 244 243 241 241 241 241 242 242 242 241 241 241 241 242 242 244 245 246 246 248 250 251 252 253 254 255 257 259 261 262 264 265 266 267 269 270 272 274 276 277 278 279 280 281 282 283 284 285 286 286 287 288 288 289 290 290 291 292 293 294 296 296 297 297 297 298 297 298 298 298 297 297 297 297 297 297 297 296 296 296 296 295 295
241 243 244 243 242 241 242 242 243 243 243 242 242 241 241 241 242 243 245 246 246 248 250 251 251 252 254 256 258 260 261 262 264 265 266 268 270 272 274 275 277 278 279 280 281 282 283 284 285 286 286 287 288 289 289 290 291 291 291 293 294 295 296 297 297 298 298 298 297 298 298 298 297 297 297 297 297 297 297 297 296 296 296 295 295
240 241 242 242 241 241 242 243 244 244 245 244 243 242 242 242 242 243 244 245 246 248 250 251 252 254 255 257 258 260 262 263 265 267 268 269 271 273 275 276 277 279 280 281 282 283 284 285 286 286 287 288 289 289 290 291 291 291 292 293 294 295 296 297 297 298 298 298 298 298 298 298 297 297 297 297 297 297 297 296 296 296 296 295 295
239 239 240 240 241 242 243 244 244 245 245 245 244 243 243 244 245 245 246 247 248 249 251 252 254 255 256 258 260 262 264 266 267 268 269 271 273 274 276 277 278 279 281 282 283 284 285 285 286 287 288 288 289 290 290 290 290 291 292 293 294 295 296 297 297 298 299 299 299 299 299 298 297 297 297 297 297 297 296 296 296 296 296 296 295